YAM-6

operational
NORAD ID: 59126 Int'l Des: 2024-043 Owner: LOFT Country: US
LEOCIRCULARRETROGRADESSO

YAM-6について

説明を読み込み中...

リアルタイム位置

3D地球を読み込み中...

次回通過

高度履歴

Altitude vs Time

uPlot chart will show altitude changes over time

軌道要素

1 59126U 24043AE 26062.33544087 .00013781 00000-0 40661-3 0 9996
2 59126 97.5384 200.7684 0007875 241.8858 118.1590 15.35081562111061
Epoch: Mar 3, 2026 • Age: 19 hours

現在のステータス

高度 477.4 km
速度 7.63 km/s
衛星直下点 74.69°N, 43.37°W
打ち上げ日 Mar 4, 2024
運用期間 1.9 years
タイプ other

技術仕様

分類 Payload
質量 87.00 kg
乾燥質量 87.00 kg
総質量 87.00 kg
長さ 1.00 m
直径 1.00 m
スパン 1.00 m
形状 Box
製造者 LEOSTL
バスタイプ YAM
フェーズステータス In Orbit
所有者/国 LOFT/US

大規模コンステレーション

Loading constellations...